{"data":{"norad_id":62985,"epoch":"2026-05-24T17:53:03.812064Z","epoch_age_seconds":103859,"freshness":"FRESH","line1":"1 62985U 25031E   26144.74518301  .00163591  00000+0  12545-2 0  9990","line2":"2 62985  43.0000 263.0509 0001310 264.2857  95.7862 15.70821203 74707","mean_motion":15.70821203,"eccentricity":0.000131,"inclination_deg":43,"raan_deg":263.0509,"arg_perigee_deg":264.2857,"mean_anomaly_deg":95.7862,"bstar":0.0012545,"rev_number":7470,"period_min":91.671795443673,"perigee_km":355.66654361007,"apogee_km":357.43103128639,"semimajor_km":6734.6857874482,"source":"CELESTRAK","updated_at":"2026-05-25T13:38:19.830593Z"}}